Vancouver Int'l Airport, British Columbia

Past 24 Hour Conditions

Date / Time
(PST)
Conditions Temp
(°C)
Humidity
(%)
Dew Point
(°C)
Wind
(km/h)
Pressure
(kPa)
Visibility
(km)
01 February 2015
4:00 Mostly Cloudy 6   98 6 ENE 5 101.8 32
3:00 Mostly Cloudy 5 97 5 WSW 7 101.9 32
2:00 Mostly Cloudy 6   95 6 N 2 101.9 32
1:00 Mostly Cloudy 6   97 6 NNE 9 102.0 24
00:00 Light Rain 6   97 6 W 8 102.1 24
31 January 2015
23:00 Light Rain 6   93 5 calm 102.1 24
22:00 Mostly Cloudy 6   97 6 N 5 102.1 24
21:00 Cloudy 6   95 5 WSW 8 102.2 24
20:00 Mostly Cloudy 6   96 5 N 4 102.2 24
19:00 Mostly Cloudy 6   96 6 NW 10 102.2 24
18:00 Mostly Cloudy 6   96 5 WNW 12 102.3 19
17:00 Mostly Cloudy 6   94 5 NW 15 102.3 24
16:00 Mostly Cloudy 6   93 5 WNW 12 102.3 19
15:00 Mostly Cloudy 6   93 5 WNW 11 102.3 24
14:00 Mostly Cloudy 6   93 5 WNW 7 102.3 19
13:00 Mostly Cloudy 6   93 5 W 9 102.4 16
12:00 Mostly Cloudy 5 98 5 WNW 7 102.5 13
11:00 Mist 5 99 5 WNW 6 102.6 2
10:00 Mist 4   99 4 NW 5 102.6 3
9:00 Fog 4   99 4 NW 8 102.6 0.8
8:00 Fog 4   99 4 W 8 102.6 0.8
7:00 Mist 4   99 4 W 5 102.5 2
6:00 Mist 4   99 4 E 8 102.5 2
5:00 Mist 4   98 4 E 8 102.6 2
4:00 Mist 4   98 4 NE 9 102.6 2
N/A Not available
↑ Highest temperature
↓ Lowest temperature

If you require additional historical weather information, please visit Climate Data Online.

What we are doing

Date modified: